Find Local Weather

World > North America > United States > Colorado

Manitou Springs, Colorado Regional Weather

Lat: 38.86N, Lon: 104.91W
Wx Zone: COZ085
Warning FLW WEATHER ALERT - HIGH WIND WARNING (More Info. Click Here) Warning
Feedback
Expires:201812122100;;693447
ASUS45 KBOU 122010
RWRCO 

WEATHER ROUNDUP FOR COLORADO
NATIONAL WEATHER SERVICE DENVER/BOULDER CO
100 PM MST WED DEC 12 2018

NOTE: "FAIR" INDICATES FEW OR NO CLOUDS BELOW 12000 FEET WITH NO
SIGNIFICANT WEATHER AND/OR OBSTRUCTIONS TO VISIBILITY.


COZ041-046-047-076>085-087-088-122100-
...PIKES PEAK/PALMER DIVIDE AND SOUTHERN FOOTHILLS...
  
CITY           SKY/WX    TMP DP  RH WIND       PRES   REMARKS
COLO. SPRINGS  FAIR      60  -3   8 CALM      29.67F                  
A. F. ACADEMY  FAIR      55   1  11 W20G25    29.67F                  
SCHRIEVER AFB  NOT AVBL                                               
CHEYENNE MTN   FAIR      53  -1  11 CALM      29.64F                  
ELLICOTT         N/A    N/A N/A N/A W10       29.66F                  
FALCON         FAIR      57  -4   8 W16G26    29.69F                  
FORT CARSON    FAIR      59   0   9 NW15G25   29.64F                  
LIMON          FAIR      61  -9   5 NW7       29.64F                  
MONUMENT HILL  FAIR      46   1  15 SW18G24   29.70F                  
CANON CITY     FAIR      61  12  15 W24G31    29.67F                  
WALSENBURG     NOT AVBL                                               
TRINIDAD       FAIR      61  -1   8 NE7       29.70F                  
$$


SKY/WX - Weather  TMP - Temperature  DP - Dew Point  RH - Relative Humidity
WIND - Wind Direction/Speed PRES - Barometric Pressure